Weather History for Pagosa Springs, CO

Change the Weather History Date:

Friday, November 15, 2013

  Actual Average (KDRO) Record (KDRO)
Temperature  
Mean Temperature 34 °F 36 °F  
Max Temperature 45 °F 49 °F 68 °F (1999)
Min Temperature 24 °F 22 °F 12 °F (1970)
Degree Days  
Heating Degree Days 30 29  
Month to date heating degree days 402  
Since 1 July heating degree days 1190  
Cooling Degree Days 0 0  
Month to date cooling degree days 0  
Year to date cooling degree days 243  
Moisture  
Dew Point 27 °F    
Average Humidity 77    
Maximum Humidity 100    
Minimum Humidity 40    
Precipitation  
Precipitation 0.00 in 0.06 in 0.18 in (1988)
Month to date precipitation 0.87  
Year to date precipitation 14.09  
Sea Level Pressure  
Sea Level Pressure 29.86 in    
Wind  
Wind Speed 1 mph (SW)    
Max Wind Speed 10 mph    
Max Gust Speed 23 mph    
Visibility 9 miles    
Events Rain , Snow , Thunderstorm    
T = Trace of Precipitation, MM = Missing Value Source: NWS Daily Summary

Daily Weather History Graph

Daily Weather History Graph

Search for Another Location

Airport:

Trip Planner

Search our weather history database for the weather conditions in past years. The results will help you decide how hot, cold, wet, or windy it might be!

Date:

Astronomy

Nov. 15, 2013 Rise Set
Actual Time 6:47 AM MST 4:57 PM MST
Civil Twilight 6:19 AM MST 5:25 PM MST
Nautical Twilight 5:48 AM MST 5:56 PM MST
Astronomical Twilight 5:17 AM MST 6:27 PM MST
Moon 3:54 PM MST (11/15) 4:49 AM MST (11/15)
Length of Visible Light 11h 05m
Length of Day
10h 09m
Waxing Gibbous, 97% of the Moon is Illuminated
Nov 15
Waxing Gibbous
Nov 17
Full
Nov 25
Last Quarter
Dec 2
New
Dec 9
First Quarter

Hourly Weather History & Observations

Time (MST) Temp. Windchill Dew Point Humidity Pressure Visibility Wind Dir Wind Speed Gust Speed Precip Events Conditions
12:15 AM 27.1 °F - 21.2 °F 78% 30.00 in 10.0 mi Calm Calm - N/A   Clear
12:35 AM 27.0 °F - 22.1 °F 82% 30.00 in 10.0 mi Calm Calm - N/A   Clear
12:55 AM 26.2 °F - 21.9 °F 84% 30.00 in 10.0 mi Calm Calm - N/A   Clear
1:15 AM 26.8 °F - 20.7 °F 78% 30.00 in 10.0 mi Calm Calm - N/A   Clear
1:35 AM 27.5 °F 23.6 °F 21.7 °F 79% 30.00 in 10.0 mi East 3.5 mph - N/A   Clear
1:55 AM 24.6 °F - 19.6 °F 81% 29.99 in 10.0 mi Calm Calm - N/A   Clear
2:15 AM 24.4 °F - 20.7 °F 86% 29.99 in 10.0 mi Calm Calm - N/A   Clear
2:35 AM 27.0 °F - 21.6 °F 80% 29.99 in 10.0 mi Calm Calm - N/A   Clear
2:55 AM 25.3 °F - 20.3 °F 81% 29.99 in 10.0 mi Calm Calm - N/A   Scattered Clouds
3:15 AM 27.1 °F - 21.6 °F 80% 29.97 in 10.0 mi Calm Calm - N/A   Mostly Cloudy
3:35 AM 26.6 °F - 21.9 °F 82% 29.97 in 10.0 mi Calm Calm - N/A   Overcast
3:55 AM 26.2 °F - 21.2 °F 81% 29.97 in 10.0 mi Calm Calm - N/A   Overcast
4:15 AM 27.5 °F - 22.3 °F 81% 29.96 in 10.0 mi Calm Calm - N/A   Overcast
4:35 AM 29.1 °F - 22.8 °F 77% 29.96 in 10.0 mi Calm Calm - N/A   Overcast
4:55 AM 29.3 °F - 22.8 °F 77% 29.95 in 10.0 mi Calm Calm - N/A   Overcast
5:15 AM 31.1 °F - 22.1 °F 69% 29.95 in 10.0 mi Calm Calm - N/A   Overcast
5:35 AM 31.1 °F - 22.5 °F 70% 29.94 in 10.0 mi Calm Calm - N/A   Overcast
5:55 AM 31.8 °F - 22.8 °F 69% 29.94 in 10.0 mi Calm Calm - N/A   Overcast
6:15 AM 32.0 °F - 22.8 °F 69% 29.93 in 10.0 mi Calm Calm - N/A   Overcast
6:35 AM 30.6 °F - 22.1 °F 71% 29.93 in 10.0 mi Calm Calm - N/A   Scattered Clouds
6:55 AM 29.8 °F - 22.5 °F 74% 29.93 in 10.0 mi Calm Calm - N/A   Mostly Cloudy
7:15 AM 29.5 °F - 22.3 °F 75% 29.93 in 10.0 mi Calm Calm - N/A   Mostly Cloudy
7:35 AM 30.6 °F - 23.0 °F 74% 29.93 in 10.0 mi Calm Calm - N/A   Mostly Cloudy
7:55 AM 32.0 °F - 24.1 °F 73% 29.94 in 10.0 mi Calm Calm - N/A   Overcast
8:15 AM 32.0 °F - 24.8 °F 75% 29.94 in 10.0 mi Calm Calm - N/A   Mostly Cloudy
8:35 AM 34.2 °F - 24.1 °F 67% 29.95 in 10.0 mi Calm Calm - N/A   Scattered Clouds
8:55 AM 35.2 °F 32.4 °F 24.8 °F 66% 29.94 in 10.0 mi NE 3.5 mph - N/A   Scattered Clouds
9:15 AM 36.0 °F - 23.7 °F 61% 29.94 in 10.0 mi Calm Calm - N/A   Scattered Clouds
9:35 AM 37.9 °F - 23.9 °F 57% 29.94 in 10.0 mi Calm Calm - N/A   Scattered Clouds
9:55 AM 39.2 °F - 22.1 °F 50% 29.94 in 10.0 mi Calm Calm - N/A   Scattered Clouds
10:15 AM 40.3 °F - 20.8 °F 46% 29.94 in 10.0 mi Calm Calm - N/A   Mostly Cloudy
10:35 AM 41.9 °F 40.0 °F 22.1 °F 45% 29.93 in 10.0 mi NE 3.5 mph - N/A   Overcast
10:55 AM 41.5 °F - 21.9 °F 46% 29.92 in 10.0 mi Calm Calm - N/A   Overcast
11:15 AM 43.0 °F - 22.3 °F 44% 29.91 in 10.0 mi Calm Calm - N/A   Overcast
11:35 AM 43.2 °F - 22.3 °F 44% 29.90 in 10.0 mi Calm Calm - N/A   Overcast
11:55 AM 43.0 °F - 21.9 °F 43% 29.88 in 10.0 mi Calm Calm - N/A   Overcast
12:15 PM 43.2 °F - 22.1 °F 43% 29.87 in 10.0 mi Calm Calm - N/A   Overcast
12:35 PM 43.9 °F - 22.3 °F 42% 29.83 in 10.0 mi Calm Calm - N/A   Mostly Cloudy
12:55 PM 44.6 °F 43.1 °F 22.3 °F 41% 29.83 in 10.0 mi WNW 3.5 mph - N/A   Overcast
1:15 PM 45.0 °F - 21.7 °F 40% 29.81 in 10.0 mi Calm Calm - N/A   Overcast
1:35 PM 45.0 °F - 21.9 °F 40% 29.81 in 10.0 mi Calm Calm - N/A   Overcast
1:55 PM 43.2 °F 40.5 °F 26.8 °F 52% 29.81 in 10.0 mi West 4.6 mph 23.0 mph N/A Rain Light Rain
2:15 PM 43.7 °F 41.1 °F 27.7 °F 53% 29.80 in 10.0 mi WSW 4.6 mph - N/A   Overcast
2:35 PM 43.0 °F 38.8 °F 27.5 °F 54% 29.80 in 10.0 mi SW 6.9 mph - N/A Rain Light Rain
2:55 PM 40.1 °F 33.6 °F 32.0 °F 73% 29.80 in 7.0 mi SW 10.4 mph - N/A Rain Rain
3:15 PM 37.4 °F 32.8 °F 33.4 °F 86% 29.78 in 3.0 mi SSW 5.8 mph - N/A Snow Light Snow
3:35 PM 36.1 °F - 34.2 °F 93% 29.77 in 4.0 mi Calm Calm - N/A Snow , Thunderstorm Light Thunderstorms and Snow
3:55 PM 37.0 °F - 35.8 °F 95% 29.76 in 10.0 mi Calm Calm - N/A Thunderstorm Thunderstorm
4:15 PM 36.7 °F 34.1 °F 35.6 °F 96% 29.76 in 10.0 mi ESE 3.5 mph - N/A   Overcast
4:35 PM 36.5 °F 32.7 °F 35.8 °F 97% 29.74 in 10.0 mi East 4.6 mph - N/A Thunderstorm Overcast
4:55 PM 36.1 °F - 35.6 °F 98% 29.74 in 10.0 mi Calm Calm - N/A   Overcast
5:15 PM 36.1 °F - 35.6 °F 98% 29.73 in 10.0 mi Calm Calm - N/A Thunderstorm Overcast
5:35 PM 35.6 °F - 34.9 °F 97% 29.72 in 3.0 mi Calm Calm - N/A Snow Light Snow
5:55 PM 34.7 °F 30.6 °F 34.3 °F 99% 29.71 in 4.0 mi NNW 4.6 mph - N/A Snow Light Snow
6:15 PM 34.7 °F 29.6 °F 34.2 °F 98% 29.70 in 10.0 mi ENE 5.8 mph - N/A   Overcast
6:35 PM 34.7 °F - 34.2 °F 98% 29.73 in 2.5 mi Calm Calm - N/A Snow , Thunderstorm Light Thunderstorms and Snow
6:55 PM 34.7 °F - 34.3 °F 99% 29.71 in 10.0 mi Calm Calm - N/A   Overcast
7:15 PM 35.1 °F 27.4 °F 34.7 °F 99% 29.75 in 10.0 mi WNW 10.4 mph - N/A Thunderstorm Thunderstorm
7:35 PM 34.7 °F 28.8 °F 34.2 °F 98% 29.75 in 2.5 mi West 6.9 mph - N/A Snow Light Snow
7:55 PM 34.9 °F - 34.7 °F 99% 29.74 in 10.0 mi Calm Calm - N/A   Overcast
8:15 PM 34.2 °F 31.2 °F 33.8 °F 99% 29.74 in 7.0 mi East 3.5 mph - N/A Snow Light Snow
8:35 PM 34.2 °F - 34.0 °F 99% 29.75 in 2.5 mi Calm Calm - N/A Snow Light Snow
8:55 PM 34.2 °F 31.2 °F 34.0 °F 99% 29.74 in 10.0 mi East 3.5 mph - N/A Thunderstorm Thunderstorm
9:15 PM 34.2 °F 31.2 °F 34.0 °F 99% 29.76 in 7.0 mi WNW 3.5 mph - N/A Snow Light Snow
9:35 PM 34.0 °F 28.0 °F 34.0 °F 100% 29.76 in 1.5 mi SW 6.9 mph - N/A Snow Light Snow
9:55 PM 33.8 °F 27.7 °F 33.8 °F 100% 29.76 in 1.2 mi SSW 6.9 mph - N/A Snow Light Snow
10:15 PM 34.0 °F 27.2 °F 34.0 °F 100% 29.76 in 1.8 mi SW 8.1 mph - N/A Snow Light Snow
10:35 PM 34.0 °F 28.8 °F 34.0 °F 100% 29.76 in 1.8 mi SW 5.8 mph - N/A Snow Light Snow
10:55 PM 34.3 °F 28.4 °F 34.2 °F 99% 29.76 in 10.0 mi SW 6.9 mph - N/A   Overcast
11:15 PM 34.5 °F 27.3 °F 34.2 °F 99% 29.76 in 10.0 mi SSW 9.2 mph - N/A   Mostly Cloudy
11:35 PM 34.7 °F 30.6 °F 34.7 °F 100% 29.75 in 10.0 mi SW 4.6 mph - N/A   Mostly Cloudy
11:55 PM 34.7 °F - 34.2 °F 98% 29.75 in 10.0 mi Calm Calm - N/A   Mostly Cloudy